When you browse on this site, cookies collect data to enhance your experience and personalize the content and advertising you see.
Visit our Privacy Policy to learn more. By continuing to use the site, you agree to this use of cookies and data.
  • In Hungary
  • List of Countries
  • For 7 days
  • Water Temperature
  • Satellite Maps
  • Weather Map
  • News
  • Weather Widgets
  • user-avatar
    Login

    Hourly Weather Santa Ana Jilotzingo

    Today, 21 April, Sunday

    Time Temperature Precipitation Wind Pressure Humidity
    00:00 +13°C° 0 mm 1 mps 541 mmHg 49%
    01:00 +13°C° 0 mm 1 mps 540 mmHg 51%
    02:00 +12°C° 0 mm 1 mps 540 mmHg 53%
    03:00 +12°C° 0 mm 1 mps 540 mmHg 56%
    04:00 +12°C° 0 mm 1 mps 540 mmHg 58%
    05:00 +11°C° 0 mm 1 mps 540 mmHg 61%
    06:00 +13°C° 0 mm 1 mps 541 mmHg 54%
    07:00 +15°C° 0 mm 1 mps 542 mmHg 46%
    08:00 +18°C° 0 mm 1 mps 543 mmHg 39%
    09:00 +21°C° 0 mm 1 mps 545 mmHg 33%
    10:00 +23°C° 0 mm 1 mps 546 mmHg 27%
    11:00 +26°C° 0 mm 1 mps 547 mmHg 20%
    12:00 +26°C° 0 mm 1 mps 546 mmHg 20%
    13:00 +26°C° 0 mm 2 mps 545 mmHg 19%
    14:00 +26°C° 0 mm 2 mps 544 mmHg 19%
    15:00 +25°C° 0.1 mm 2 mps 544 mmHg 22%
    16:00 +24°C° 0.1 mm 1 mps 543 mmHg 24%
    17:00 +22°C° 0.1 mm 1 mps 542 mmHg 27%
    18:00 +21°C° 0 mm 1 mps 542 mmHg 31%
    19:00 +20°C° 0 mm 1 mps 542 mmHg 35%
    20:00 +19°C° 0 mm 1 mps 542 mmHg 38%
    21:00 +18°C° 0 mm 1 mps 542 mmHg 41%
    22:00 +16°C° 0 mm 1 mps 542 mmHg 44%
    23:00 +16°C° 0 mm 1 mps 542 mmHg 47%

    Tomorrow, 22 April, Monday

    Time Temperature Precipitation Wind Pressure Humidity
    00:00 +15°C° 0 mm 1 mps 541 mmHg 48%
    01:00 +14°C° 0 mm 1 mps 541 mmHg 50%
    02:00 +14°C° 0 mm 1 mps 540 mmHg 52%
    03:00 +14°C° 0 mm 1 mps 540 mmHg 52%
    04:00 +13°C° 0 mm 1 mps 540 mmHg 53%
    05:00 +13°C° 0 mm 1 mps 540 mmHg 53%
    06:00 +15°C° 0 mm 1 mps 541 mmHg 47%
    07:00 +18°C° 0 mm 1 mps 542 mmHg 41%
    08:00 +20°C° 0 mm 1 mps 544 mmHg 35%
    09:00 +22°C° 0 mm 1 mps 544 mmHg 30%
    10:00 +24°C° 0 mm 1 mps 545 mmHg 26%
    11:00 +26°C° 0 mm 2 mps 546 mmHg 21%
    12:00 +26°C° 0 mm 2 mps 545 mmHg 21%
    13:00 +26°C° 0 mm 2 mps 544 mmHg 20%
    14:00 +26°C° 0 mm 2 mps 544 mmHg 20%
    15:00 +24°C° 0.1 mm 2 mps 543 mmHg 24%
    16:00 +22°C° 0.1 mm 3 mps 542 mmHg 28%
    17:00 +21°C° 0.1 mm 3 mps 541 mmHg 32%
    18:00 +20°C° 0.1 mm 2 mps 541 mmHg 35%
    19:00 +19°C° 0.1 mm 2 mps 541 mmHg 39%
    20:00 +19°C° 0.1 mm 1 mps 541 mmHg 42%
    21:00 +18°C° 0.1 mm 1 mps 541 mmHg 45%
    22:00 +16°C° 0.1 mm 1 mps 541 mmHg 48%
    23:00 +15°C° 0.1 mm 1 mps 541 mmHg 50%

    Day after tomorrow, 23 April, Tuesday

    Time Temperature Precipitation Wind Pressure Humidity
    00:00 +15°C° 0 mm 1 mps 540 mmHg 52%
    01:00 +15°C° 0 mm 1 mps 540 mmHg 54%
    02:00 +14°C° 0 mm 1 mps 539 mmHg 55%
    03:00 +14°C° 0 mm 1 mps 539 mmHg 56%
    04:00 +14°C° 0 mm 1 mps 539 mmHg 57%
    05:00 +13°C° 0 mm 1 mps 539 mmHg 57%
    06:00 +15°C° 0 mm 1 mps 540 mmHg 49%
    07:00 +19°C° 0 mm 1 mps 542 mmHg 42%
    08:00 +19°C° 0 mm 0 mps 543 mmHg 34%
    09:00 +23°C° 0 mm 1 mps 544 mmHg 30%
    10:00 +25°C° 0 mm 1 mps 545 mmHg 26%
    11:00 +27°C° 0 mm 1 mps 546 mmHg 22%
    12:00 +26°C° 0.2 mm 1 mps 544 mmHg 25%
    13:00 +24°C° 0.2 mm 2 mps 543 mmHg 28%
    14:00 +23°C° 0.2 mm 2 mps 541 mmHg 31%
    15:00 +21°C° 0.1 mm 2 mps 541 mmHg 33%
    16:00 +22°C° 0.1 mm 1 mps 540 mmHg 35%
    17:00 +21°C° 0.1 mm 1 mps 540 mmHg 37%
    18:00 +20°C° 0.4 mm 1 mps 540 mmHg 41%
    19:00 +18°C° 0.4 mm 2 mps 540 mmHg 45%
    20:00 +16°C° 0.4 mm 2 mps 540 mmHg 49%
    21:00 +16°C° 0.1 mm 2 mps 540 mmHg 50%
    22:00 +15°C° 0.1 mm 2 mps 540 mmHg 51%
    23:00 +15°C° 0.1 mm 1 mps 540 mmHg 51%

    24 April, Wednesday

    Time Temperature Precipitation Wind Pressure Humidity
    00:00 +15°C° 0 mm 1 mps 539 mmHg 51%
    01:00 +15°C° 0 mm 2 mps 539 mmHg 51%
    02:00 +15°C° 0 mm 2 mps 539 mmHg 51%
    03:00 +14°C° 0 mm 2 mps 539 mmHg 52%
    04:00 +14°C° 0 mm 1 mps 539 mmHg 52%
    05:00 +14°C° 0 mm 1 mps 539 mmHg 53%
    06:00 +15°C° 0 mm 1 mps 540 mmHg 47%
    07:00 +18°C° 0 mm 1 mps 541 mmHg 41%
    08:00 +20°C° 0 mm 1 mps 542 mmHg 35%
    09:00 +20°C° 0 mm 2 mps 543 mmHg 31%
    10:00 +23°C° 0 mm 2 mps 543 mmHg 26%
    11:00 +24°C° 0 mm 3 mps 544 mmHg 22%
    12:00 +25°C° 0 mm 3 mps 543 mmHg 21%
    13:00 +26°C° 0 mm 4 mps 543 mmHg 20%
    14:00 +26°C° 0 mm 4 mps 542 mmHg 20%
    15:00 +25°C° 0 mm 5 mps 542 mmHg 21%
    16:00 +23°C° 0 mm 5 mps 541 mmHg 22%
    17:00 +22°C° 0 mm 5 mps 541 mmHg 23%
    18:00 +21°C° 0 mm 4 mps 540 mmHg 26%
    19:00 +19°C° 0 mm 3 mps 540 mmHg 29%
    20:00 +17°C° 0 mm 3 mps 539 mmHg 32%
    21:00 +16°C° 0 mm 2 mps 539 mmHg 33%
    22:00 +15°C° 0 mm 2 mps 539 mmHg 34%
    23:00 +15°C° 0 mm 2 mps 539 mmHg 34%

    25 April, Thursday

    Time Temperature Precipitation Wind Pressure Humidity
    00:00 +14°C° 0 mm 1 mps 539 mmHg 35%
    01:00 +14°C° 0 mm 1 mps 538 mmHg 35%
    02:00 +13°C° 0 mm 1 mps 538 mmHg 35%
    03:00 +13°C° 0 mm 1 mps 538 mmHg 35%
    04:00 +12°C° 0 mm 1 mps 538 mmHg 34%
    05:00 +12°C° 0 mm 1 mps 538 mmHg 34%
    06:00 +14°C° 0 mm 1 mps 540 mmHg 29%
    07:00 +18°C° 0 mm 1 mps 542 mmHg 24%
    08:00 +20°C° 0 mm 1 mps 543 mmHg 19%
    09:00 +22°C° 0 mm 1 mps 544 mmHg 17%
    10:00 +24°C° 0 mm 1 mps 545 mmHg 15%
    11:00 +26°C° 0 mm 1 mps 545 mmHg 13%
    12:00 +26°C° 0 mm 2 mps 545 mmHg 13%
    13:00 +26°C° 0 mm 2 mps 544 mmHg 12%
    14:00 +26°C° 0 mm 3 mps 544 mmHg 12%
    15:00 +26°C° 0 mm 3 mps 543 mmHg 13%
    16:00 +25°C° 0 mm 4 mps 543 mmHg 14%
    17:00 +23°C° 0 mm 4 mps 543 mmHg 15%
    18:00 +21°C° 0 mm 3 mps 542 mmHg 22%
    19:00 +19°C° 0 mm 2 mps 542 mmHg 28%
    20:00 +18°C° 0 mm 1 mps 542 mmHg 34%
    21:00 +16°C° 0 mm 1 mps 541 mmHg 39%
    22:00 +15°C° 0 mm 1 mps 541 mmHg 44%
    23:00 +15°C° 0 mm 1 mps 541 mmHg 49%

    26 April, Friday

    Time Temperature Precipitation Wind Pressure Humidity
    00:00 +14°C° 0 mm 1 mps 541 mmHg 53%
    01:00 +14°C° 0 mm 1 mps 540 mmHg 56%
    02:00 +13°C° 0 mm 1 mps 540 mmHg 60%
    03:00 +13°C° 0 mm 1 mps 540 mmHg 66%
    04:00 +12°C° 0 mm 1 mps 540 mmHg 72%
    05:00 +12°C° 0 mm 1 mps 540 mmHg 78%
    06:00 +13°C° 0 mm 1 mps 541 mmHg 70%
    07:00 +15°C° 0 mm 1 mps 542 mmHg 62%
    08:00 +18°C° 0 mm 1 mps 543 mmHg 55%
    09:00 +19°C° 0 mm 2 mps 544 mmHg 47%
    10:00 +21°C° 0 mm 2 mps 544 mmHg 39%
    11:00 +24°C° 0 mm 2 mps 545 mmHg 32%
    12:00 +23°C° 0.1 mm 2 mps 544 mmHg 33%
    13:00 +21°C° 0.1 mm 2 mps 543 mmHg 34%
    14:00 +20°C° 0.1 mm 2 mps 542 mmHg 36%
    15:00 +20°C° 0 mm 2 mps 542 mmHg 37%
    16:00 +19°C° 0 mm 3 mps 541 mmHg 39%
    17:00 +19°C° 0 mm 3 mps 541 mmHg 41%
    18:00 +18°C° 0 mm 3 mps 541 mmHg 48%
    19:00 +16°C° 0 mm 2 mps 541 mmHg 56%
    20:00 +15°C° 0 mm 2 mps 541 mmHg 63%
    21:00 +14°C° 0.3 mm 2 mps 541 mmHg 67%
    22:00 +13°C° 0.3 mm 1 mps 540 mmHg 70%
    23:00 +13°C° 0.3 mm 1 mps 540 mmHg 74%
    Show more